When you browse on this site, cookies collect data to enhance your experience and personalize the content and advertising you see.
Visit our Privacy Policy to learn more. By continuing to use the site, you agree to this use of cookies and data.
  • In Hungary
  • List of Countries
  • For 7 days
  • Water Temperature
  • Weather Map
  • News
  • Weather Widgets
  • user-avatar
    Login

    Hourly Weather Albino

    Today, 17 August, Saturday

    Time Temperature Precipitation Wind Pressure Humidity
    00:00 +20°C° 0 mm 1 mps 724 mmHg 74%
    01:00 +19°C° 0 mm 1 mps 724 mmHg 76%
    02:00 +19°C° 0 mm 1 mps 724 mmHg 77%
    03:00 +19°C° 0 mm 1 mps 724 mmHg 78%
    04:00 +18°C° 0 mm 1 mps 723 mmHg 79%
    05:00 +19°C° 0 mm 1 mps 724 mmHg 77%
    06:00 +20°C° 0 mm 1 mps 724 mmHg 76%
    07:00 +21°C° 0 mm 1 mps 724 mmHg 75%
    08:00 +22°C° 0 mm 1 mps 724 mmHg 68%
    09:00 +24°C° 0 mm 1 mps 724 mmHg 61%
    10:00 +26°C° 0 mm 1 mps 724 mmHg 54%
    11:00 +26°C° 0 mm 1 mps 724 mmHg 53%
    12:00 +27°C° 0 mm 1 mps 724 mmHg 51%
    13:00 +28°C° 0 mm 1 mps 724 mmHg 50%
    14:00 +28°C° 0 mm 1 mps 724 mmHg 49%
    15:00 +28°C° 0 mm 1 mps 723 mmHg 48%
    16:00 +28°C° 0 mm 1 mps 723 mmHg 48%
    17:00 +27°C° 0 mm 1 mps 723 mmHg 54%
    18:00 +25°C° 0 mm 1 mps 723 mmHg 60%
    19:00 +24°C° 0 mm 1 mps 723 mmHg 66%
    20:00 +23°C° 0 mm 1 mps 723 mmHg 67%
    21:00 +23°C° 0 mm 1 mps 723 mmHg 68%
    22:00 +22°C° 0 mm 1 mps 723 mmHg 70%
    23:00 +21°C° 0 mm 1 mps 723 mmHg 71%

    Tomorrow, 18 August, Sunday

    Time Temperature Precipitation Wind Pressure Humidity
    00:00 +21°C° 0 mm 1 mps 723 mmHg 73%
    01:00 +20°C° 0 mm 1 mps 723 mmHg 75%
    02:00 +20°C° 0 mm 1 mps 723 mmHg 76%
    03:00 +20°C° 0 mm 1 mps 723 mmHg 77%
    04:00 +19°C° 0 mm 1 mps 723 mmHg 78%
    05:00 +20°C° 0 mm 1 mps 723 mmHg 77%
    06:00 +21°C° 0 mm 1 mps 723 mmHg 75%
    07:00 +21°C° 0 mm 1 mps 723 mmHg 74%
    08:00 +23°C° 0 mm 1 mps 723 mmHg 69%
    09:00 +25°C° 0 mm 1 mps 723 mmHg 63%
    10:00 +26°C° 0 mm 1 mps 724 mmHg 58%
    11:00 +27°C° 0 mm 1 mps 723 mmHg 55%
    12:00 +28°C° 0 mm 1 mps 723 mmHg 53%
    13:00 +29°C° 0 mm 1 mps 723 mmHg 51%
    14:00 +29°C° 0 mm 1 mps 723 mmHg 51%
    15:00 +29°C° 0 mm 1 mps 723 mmHg 51%
    16:00 +29°C° 0 mm 1 mps 723 mmHg 51%
    17:00 +28°C° 0 mm 1 mps 723 mmHg 56%
    18:00 +26°C° 0 mm 1 mps 723 mmHg 62%
    19:00 +25°C° 0 mm 1 mps 722 mmHg 67%
    20:00 +24°C° 0 mm 1 mps 723 mmHg 68%
    21:00 +24°C° 0 mm 1 mps 723 mmHg 70%
    22:00 +23°C° 0 mm 1 mps 723 mmHg 71%
    23:00 +23°C° 0 mm 1 mps 723 mmHg 73%

    Day after tomorrow, 19 August, Monday

    Time Temperature Precipitation Wind Pressure Humidity
    00:00 +22°C° 0 mm 1 mps 723 mmHg 75%
    01:00 +22°C° 0 mm 1 mps 723 mmHg 78%
    02:00 +22°C° 0 mm 1 mps 723 mmHg 79%
    03:00 +21°C° 0 mm 1 mps 723 mmHg 80%
    04:00 +21°C° 0 mm 1 mps 723 mmHg 82%
    05:00 +21°C° 0 mm 1 mps 723 mmHg 81%
    06:00 +20°C° 0 mm 0 mps 724 mmHg 80%
    07:00 +20°C° 0 mm 0 mps 724 mmHg 79%
    08:00 +24°C° 0.1 mm 1 mps 724 mmHg 73%
    09:00 +26°C° 0.1 mm 1 mps 724 mmHg 68%
    10:00 +27°C° 0.1 mm 1 mps 724 mmHg 62%
    11:00 +28°C° 0.2 mm 2 mps 724 mmHg 60%
    12:00 +29°C° 0.2 mm 2 mps 724 mmHg 57%
    13:00 +30°C° 0.2 mm 2 mps 724 mmHg 55%
    14:00 +30°C° 0.5 mm 2 mps 724 mmHg 55%
    15:00 +30°C° 0.5 mm 2 mps 724 mmHg 55%
    16:00 +30°C° 0.5 mm 2 mps 724 mmHg 56%
    17:00 +28°C° 0.5 mm 1 mps 724 mmHg 61%
    18:00 +27°C° 0.5 mm 1 mps 724 mmHg 66%
    19:00 +25°C° 0.5 mm 1 mps 724 mmHg 71%
    20:00 +25°C° 0.5 mm 1 mps 724 mmHg 73%
    21:00 +24°C° 0.5 mm 1 mps 724 mmHg 75%
    22:00 +23°C° 0.5 mm 1 mps 725 mmHg 76%
    23:00 +23°C° 0.4 mm 1 mps 725 mmHg 78%

    20 August, Tuesday

    Time Temperature Precipitation Wind Pressure Humidity
    00:00 +22°C° 0.4 mm 1 mps 725 mmHg 79%
    01:00 +22°C° 0.4 mm 1 mps 725 mmHg 80%
    02:00 +22°C° 0.3 mm 1 mps 724 mmHg 81%
    03:00 +21°C° 0.3 mm 1 mps 724 mmHg 82%
    04:00 +21°C° 0.3 mm 1 mps 724 mmHg 83%
    05:00 +22°C° 0 mm 1 mps 724 mmHg 82%
    06:00 +20°C° 0 mm 0 mps 724 mmHg 81%
    07:00 +21°C° 0 mm 0 mps 724 mmHg 79%
    08:00 +24°C° 0.1 mm 1 mps 724 mmHg 73%
    09:00 +26°C° 0.1 mm 1 mps 725 mmHg 66%
    10:00 +28°C° 0.1 mm 2 mps 725 mmHg 59%
    11:00 +28°C° 0.2 mm 2 mps 725 mmHg 56%
    12:00 +29°C° 0.2 mm 2 mps 724 mmHg 52%
    13:00 +30°C° 0.2 mm 2 mps 724 mmHg 49%
    14:00 +30°C° 0.2 mm 2 mps 724 mmHg 48%
    15:00 +30°C° 0.2 mm 2 mps 724 mmHg 48%
    16:00 +30°C° 0.2 mm 2 mps 724 mmHg 47%
    17:00 +29°C° 0.2 mm 2 mps 725 mmHg 53%
    18:00 +27°C° 0.2 mm 1 mps 725 mmHg 59%
    19:00 +25°C° 0.2 mm 1 mps 725 mmHg 65%
    20:00 +24°C° 0.6 mm 2 mps 725 mmHg 71%
    21:00 +21°C° 0.6 mm 2 mps 725 mmHg 77%
    22:00 +20°C° 0.6 mm 3 mps 725 mmHg 82%
    23:00 +20°C° 0.9 mm 3 mps 725 mmHg 84%

    21 August, Wednesday

    Time Temperature Precipitation Wind Pressure Humidity
    00:00 +19°C° 0.9 mm 3 mps 725 mmHg 85%
    01:00 +19°C° 0.9 mm 3 mps 725 mmHg 86%
    02:00 +18°C° 0.5 mm 2 mps 725 mmHg 86%
    03:00 +18°C° 0.5 mm 2 mps 725 mmHg 86%
    04:00 +17°C° 0.5 mm 2 mps 725 mmHg 86%
    05:00 +18°C° 0.1 mm 2 mps 726 mmHg 84%
    06:00 +18°C° 0.1 mm 2 mps 726 mmHg 82%
    07:00 +19°C° 0.1 mm 2 mps 726 mmHg 80%
    08:00 +22°C° 0 mm 1 mps 726 mmHg 71%
    09:00 +25°C° 0 mm 1 mps 727 mmHg 62%
    10:00 +27°C° 0 mm 1 mps 727 mmHg 53%
    11:00 +28°C° 0.1 mm 1 mps 727 mmHg 53%
    12:00 +28°C° 0.1 mm 2 mps 727 mmHg 52%
    13:00 +29°C° 0.1 mm 2 mps 726 mmHg 52%
    14:00 +29°C° 0.3 mm 2 mps 726 mmHg 53%
    15:00 +28°C° 0.3 mm 2 mps 726 mmHg 55%
    16:00 +28°C° 0.3 mm 2 mps 726 mmHg 57%
    17:00 +27°C° 0.1 mm 2 mps 726 mmHg 62%
    18:00 +25°C° 0.1 mm 2 mps 726 mmHg 68%
    19:00 +24°C° 0.1 mm 1 mps 726 mmHg 73%
    20:00 +23°C° 0.2 mm 2 mps 726 mmHg 76%
    21:00 +21°C° 0.2 mm 2 mps 727 mmHg 80%
    22:00 +20°C° 0.2 mm 2 mps 727 mmHg 83%
    23:00 +20°C° 0.2 mm 2 mps 727 mmHg 83%

    22 August, Thursday

    Time Temperature Precipitation Wind Pressure Humidity
    00:00 +19°C° 0.2 mm 2 mps 727 mmHg 84%
    01:00 +20°C° 0.2 mm 1 mps 727 mmHg 84%
    02:00 +20°C° 0.1 mm 1 mps 727 mmHg 84%
    03:00 +20°C° 0.1 mm 1 mps 727 mmHg 83%
    04:00 +20°C° 0.1 mm 1 mps 727 mmHg 83%
    05:00 +20°C° 0 mm 1 mps 727 mmHg 82%
    06:00 +21°C° 0 mm 1 mps 727 mmHg 81%
    07:00 +21°C° 0 mm 1 mps 727 mmHg 80%
    08:00 +23°C° 0.1 mm 1 mps 727 mmHg 74%
    09:00 +24°C° 0.1 mm 1 mps 727 mmHg 67%
    10:00 +26°C° 0.1 mm 1 mps 728 mmHg 61%
    11:00 +26°C° 0.3 mm 1 mps 727 mmHg 60%
    12:00 +26°C° 0.3 mm 1 mps 727 mmHg 60%
    13:00 +27°C° 0.3 mm 2 mps 727 mmHg 59%
    14:00 +27°C° 0.4 mm 1 mps 727 mmHg 58%
    15:00 +27°C° 0.4 mm 1 mps 727 mmHg 56%
    16:00 +28°C° 0.4 mm 1 mps 726 mmHg 55%
    17:00 +26°C° 0.4 mm 1 mps 726 mmHg 61%
    18:00 +25°C° 0.4 mm 1 mps 726 mmHg 66%
    19:00 +23°C° 0.4 mm 1 mps 726 mmHg 72%
    20:00 +22°C° 0.5 mm 1 mps 726 mmHg 76%
    21:00 +21°C° 0.5 mm 1 mps 726 mmHg 79%
    22:00 +20°C° 0.5 mm 1 mps 727 mmHg 82%
    23:00 +20°C° 0.1 mm 1 mps 727 mmHg 82%
    Show more